K9UO Weather Reports


time (UTC)temp
F
wind
direction
speed
knots
gust
knots
rain 1hr
in
rain 24hr
in
rain mn
in
humidity
%
barometer
mb
20260906091007 64 61 0.9 1.7 0.00 0.76 0.00 88 1016.5
20260906090509 64 53 0.9 2.6 0.00 0.80 0.00 87 1016.6
20260906090005 64 61 0.9 2.6 0.00 0.84 0.00 87 1016.5
20260906085503 64 61 0.9 1.7 0.00 0.84 0.00 87 1016.5
20260906085003 65 61 0.9 3.5 0.00 0.84 0.00 87 1016.5
20260906084504 65 52 0.9 4.3 0.00 0.84 0.00 86 1016.5
20260906084004 65 57 1.7 4.3 0.00 0.84 0.00 85 1016.4
20260906083502 65 63 1.7 7.0 0.00 0.84 0.00 85 1016.3
20260906083013 66 53 1.7 7.0 0.00 0.84 0.00 85 1016.3
20260906082503 66 68 2.6 6.1 0.00 0.84 0.00 85 1016.4
20260906082003 66 53 2.6 6.1 0.00 0.84 0.00 85 1016.3
20260906081515 66 61 1.7 7.0 0.00 0.84 0.00 85 1016.3
20260906081007 66 62 2.6 7.0 0.00 0.84 0.00 84 1016.4
20260906080508 66 57 3.5 7.0 0.00 0.84 0.00 83 1016.3
20260906080016 66 57 3.5 7.0 0.00 0.84 0.00 83 1016.3
20260906075510 66 67 3.5 7.0 0.00 0.84 0.00 83 1016.4
20260906075009 66 69 2.6 7.0 0.00 0.84 0.00 82 1016.4
20260906074503 66 65 1.7 7.0 0.00 0.84 0.00 82 1016.4
20260906074003 67 65 2.6 4.3 0.00 0.84 0.00 81 1016.5
20260906073502 67 78 1.7 4.3 0.00 0.84 0.00 81 1016.5
20260906073005 67 49 2.6 7.8 0.00 0.84 0.00 81 1016.4
20260906072503 67 50 3.5 7.0 0.00 0.84 0.00 81 1016.4
20260906072003 67 59 1.7 6.1 0.00 0.84 0.00 81 1016.4
20260906071508 67 81 2.6 6.1 0.00 0.84 0.00 81 1016.4
20260906071007 67 60 2.6 6.1 0.00 0.84 0.00 80 1016.3
20260906070508 67 67 2.6 5.2 0.00 0.84 0.00 80 1016.3
20260906070015 67 69 3.5 5.2 0.00 0.84 0.00 80 1016.3
20260906065508 67 66 2.6 5.2 0.00 0.84 0.00 80 1016.3
20260906065013 67 62 1.7 3.5 0.00 0.84 0.00 81 1016.3
20260906064520 67 60 1.7 3.5 0.00 0.84 0.00 81 1016.3
20260906064012 68 70 1.7 4.3 0.00 0.84 0.00 80 1016.3
20260906063504 68 65 1.7 4.3 0.00 0.84 0.00 81 1016.3
20260906063005 68 71 1.7 5.2 0.00 0.84 0.00 81 1016.3
20260906062502 68 65 2.6 5.2 0.00 0.84 0.00 81 1016.3
20260906062003 68 61 1.7 4.3 0.00 0.84 0.00 82 1016.2
20260906061509 68 67 2.6 4.3 0.00 0.84 0.00 81 1016.3
20260906061003 68 72 1.7 3.5 0.00 0.84 0.00 83 1016.3
20260906060507 67 59 0.9 2.6 0.00 0.84 0.00 83 1016.3
20260906060024 67 58 0.9 2.6 0.00 0.84 0.00 83 1016.2
20260906055507 67 68 0.9 2.6 0.00 0.84 0.00 84 1016.2
20260906055007 67 64 0.9 1.7 0.00 0.84 0.00 84 1016.1
20260906054526 67 65 0.9 2.6 0.00 0.84 0.00 83 1016.0
20260906054012 67 60 1.7 2.6 0.00 0.84 0.00 83 1016.0
20260906053510 67 61 0.9 2.6 0.00 0.84 0.00 83 1015.9
20260906053028 67 69 0.9 2.6 0.00 0.84 0.00 83 1015.9
20260906052503 67 38 1.7 2.6 0.00 0.84 0.00 83 1015.9
20260906052003 67 47 0.9 1.7 0.00 0.84 0.00 85 1015.9
20260906051506 67 66 0.9 1.7 0.00 0.84 0.00 85 1015.9
20260906051007 67 64 0.9 0.9 0.00 0.84 0.00 86 1015.9
20260906050503 67 63 0.9 1.7 0.00 0.84 0.00 86 1015.9
20260906050028 67 67 0.0 1.7 0.00 0.84 0.00 87 1015.9
20260906045506 67 66 0.9 1.7 0.00 0.84 0.00 87 1015.8
20260906045007 67 62 0.9 1.7 0.00 0.84 0.00 87 1015.8
20260906044528 67 65 0.9 1.7 0.00 0.84 0.00 87 1015.7
20260906044013 67 65 0.0 1.7 0.00 0.84 0.00 87 1015.8
20260906043512 67 65 0.0 1.7 0.00 0.84 0.00 86 1015.8
20260906043023 67 67 0.0 0.9 0.00 0.84 0.00 86 1015.6
20260906042511 67 67 0.0 0.9 0.00 0.84 0.00 86 1015.4
20260906042013 67 67 0.0 0.9 0.00 0.84 0.00 86 1015.4
20260906041508 67 67 0.0 0.9 0.00 0.84 0.00 86 1015.5
20260906041004 67 67 0.0 0.9 0.00 0.84 0.00 86 1015.4
20260906040503 67 67 0.0 1.7 0.00 0.84 0.00 85 1015.3
20260906040011 67 67 0.9 1.7 0.00 0.84 0.00 85 1015.3
20260906035505 68 65 0.9 1.7 0.00 0.84 0.84 84 1015.4
20260906035004 68 66 0.9 3.5 0.00 0.84 0.84 84 1015.4
20260906034517 68 66 1.7 3.5 0.00 0.84 0.84 84 1015.4
20260906034007 68 67 1.7 3.5 0.00 0.84 0.84 84 1015.4
20260906033509 69 72 2.6 3.5 0.00 0.84 0.84 83 1015.3
20260906033036 69 63 1.7 3.5 0.00 0.84 0.84 86 1015.3
20260906032511 69 57 1.7 3.5 0.00 0.84 0.84 86 1015.3
20260906032013 69 61 2.6 3.5 0.00 0.84 0.84 87 1015.3
20260906031530 69 56 1.7 3.5 0.00 0.84 0.84 88 1015.4
20260906031017 70 62 1.7 3.5 0.00 0.84 0.84 89 1015.4
20260906030503 70 70 1.7 1.7 0.00 0.84 0.84 89 1015.5
20260906030012 70 65 0.9 3.5 0.00 0.84 0.84 89 1015.4
20260906025504 70 70 1.7 4.3 0.00 0.84 0.84 89 1015.4
20260906025004 70 55 2.6 4.3 0.00 0.84 0.84 89 1015.3
20260906024514 70 63 2.6 4.3 0.00 0.84 0.84 89 1015.3
20260906024009 70 63 2.6 5.2 0.00 0.84 0.84 89 1015.3
20260906023508 70 75 2.6 5.2 0.00 0.84 0.84 89 1015.3
20260906023017 71 73 1.7 4.3 0.00 0.84 0.84 89 1015.2
20260906022509 71 64 1.7 4.3 0.00 0.84 0.84 89 1015.2
20260906022012 71 58 2.6 5.2 0.00 0.84 0.84 89 1015.2
20260906021528 71 72 1.7 5.2 0.00 0.84 0.84 88 1015.2
20260906021014 71 77 1.7 7.8 0.00 0.84 0.84 88 1015.2
20260906020513 71 61 2.6 7.8 0.00 0.84 0.84 88 1015.2
20260906020030 72 59 3.5 6.1 0.00 0.84 0.84 88 1015.1
20260906015504 71 52 1.7 6.1 0.00 0.84 0.84 89 1015.1
20260906015004 71 54 2.6 7.0 0.00 0.84 0.84 89 1014.9
20260906014511 71 59 3.5 7.0 0.00 0.84 0.84 89 1014.9
20260906014005 72 63 2.6 7.8 0.00 0.84 0.84 89 1014.8
20260906013506 72 67 2.6 7.8 0.00 0.84 0.84 88 1014.7
20260906013014 72 70 2.6 7.8 0.00 0.84 0.84 88 1014.6
20260906012509 72 57 2.6 7.8 0.00 0.84 0.84 88 1014.6
20260906012012 72 74 3.5 7.0 0.00 0.84 0.84 88 1014.4
20260906011533 72 53 3.5 7.8 0.00 0.84 0.84 88 1014.3
20260906011015 72 55 1.7 7.8 0.00 0.84 0.84 88 1014.2
20260906010516 73 65 2.6 7.0 0.00 0.84 0.84 88 1014.1
20260906010032 73 59 3.5 7.8 0.00 0.84 0.84 88 1014.2
20260906005515 73 61 3.5 7.8 0.00 0.84 0.84 88 1014.2
20260906005015 73 40 1.7 8.7 0.00 0.84 0.84 88 1014.2
20260906004509 74 55 3.5 8.7 0.00 0.84 0.84 88 1014.1
20260906004004 74 61 2.6 7.8 0.00 0.84 0.84 88 1014.0
20260906003506 74 63 0.9 7.8 0.00 0.84 0.84 88 1013.9
20260906003013 74 73 2.6 5.2 0.00 0.84 0.84 88 1013.8
20260906002510 74 53 1.7 4.3 0.00 0.84 0.84 88 1013.7
20260906002008 74 61 1.7 3.5 0.00 0.84 0.84 87 1013.7
20260906001523 75 49 0.9 2.6 0.00 0.84 0.84 87 1013.8
20260906001011 75 66 1.7 2.6 0.00 0.84 0.84 87 1013.7
20260906000513 75 53 1.7 2.6 0.00 0.84 0.84 86 1013.7
20260906000030 75 55 0.9 2.6 0.00 0.84 0.84 85 1013.7
20260905235515 75 61 0.9 4.3 0.00 0.84 0.84 85 1013.6
20260905235020 75 59 1.7 4.3 0.00 0.84 0.84 85 1013.6
20260905234530 76 67 0.9 3.5 0.00 0.84 0.84 85 1013.6
20260905234016 76 59 1.7 5.2 0.00 0.84 0.84 85 1013.5
20260905233506 76 72 2.6 5.2 0.00 0.84 0.84 85 1013.6
20260905233009 76 60 1.7 5.2 0.00 0.84 0.84 85 1013.6
20260905232507 76 59 1.7 2.6 0.00 0.84 0.84 85 1013.7
20260905232006 77 60 0.9 2.6 0.00 0.84 0.84 84 1013.7
20260905231520 77 54 0.9 5.2 0.00 0.84 0.84 85 1013.8
20260905231010 77 59 1.7 5.2 0.00 0.84 0.84 84 1013.8
20260905230511 78 69 2.6 6.1 0.00 0.84 0.84 83 1013.8
20260905230028 78 30 1.7 6.1 0.00 0.84 0.84 82 1013.8
20260905225515 78 54 0.9 2.6 0.00 0.84 0.84 83 1013.7
20260905225018 79 45 0.9 1.7 0.00 0.84 0.84 83 1013.6
20260905224533 78 47 0.9 1.7 0.00 0.84 0.84 83 1013.5
20260905224019 78 53 0.9 3.5 0.00 0.84 0.84 83 1013.5
20260905223515 78 42 0.9 3.5 0.00 0.84 0.84 83 1013.4
20260905223035 78 49 0.9 2.6 0.00 0.84 0.84 84 1013.3
20260905222505 79 57 0.9 2.6 0.00 0.84 0.84 84 1013.3
20260905222008 79 62 0.9 2.6 0.00 0.84 0.84 83 1013.2
20260905221517 79 38 0.9 5.2 0.00 0.84 0.84 82 1013.1
20260905221009 80 49 1.7 5.2 0.00 0.84 0.84 81 1012.9
20260905220510 80 77 2.6 7.8 0.00 0.84 0.84 81 1012.8
20260905220024 80 59 0.9 7.8 0.00 0.84 0.84 82 1012.9
20260905215513 80 59 0.9 3.5 0.00 0.84 0.84 81 1012.9
20260905215012 80 61 0.9 2.6 0.00 0.84 0.84 80 1012.9
20260905214527 81 39 0.9 1.7 0.00 0.84 0.84 79 1012.9
20260905214014 81 40 0.9 1.7 0.00 0.84 0.84 80 1012.7
20260905213512 81 40 0.9 1.7 0.00 0.84 0.84 79 1012.7
20260905213030 81 34 0.9 0.9 0.00 0.84 0.84 79 1012.6
20260905212515 82 52 0.9 1.7 0.00 0.84 0.84 79 1012.6
20260905212017 82 34 0.9 1.7 0.00 0.84 0.84 78 1012.7
20260905211511 82 46 0.9 1.7 0.00 0.84 0.84 78 1012.6
20260905211007 82 32 0.9 2.6 0.00 0.84 0.84 77 1012.8
20260905210511 83 64 0.9 2.6 0.00 0.84 0.84 78 1012.8
20260905210019 83 64 0.9 5.2 0.00 0.84 0.84 78 1012.8
20260905205511 83 42 0.9 5.2 0.00 0.84 0.84 78 1012.9
20260905205012 82 10 0.0 1.7 0.00 0.84 0.84 79 1012.9
20260905204527 82 29 0.9 2.6 0.00 0.84 0.84 80 1013.0
20260905204015 81 53 0.9 2.6 0.00 0.84 0.84 80 1013.1
20260905203514 81 59 0.9 2.6 0.00 0.84 0.84 81 1013.2
20260905203006 81 50 0.9 0.9 0.00 0.84 0.84 80 1013.3
20260905202503 81 49 0.9 1.7 0.00 0.84 0.84 79 1013.3
20260905202004 81 56 0.0 1.7 0.00 0.84 0.84 81 1013.3
20260905201509 82 56 0.0 1.7 0.00 0.84 0.84 79 1013.3
20260905201010 82 56 0.0 1.7 0.00 0.84 0.84 79 1013.3
20260905200507 82 352 0.0 3.5 0.00 0.84 0.84 78 1013.2
20260905200021 83 352 0.0 4.3 0.00 0.84 0.84 75 1013.2
20260905195510 83 350 1.7 7.0 0.00 0.84 0.84 73 1013.3
20260905195015 83 339 1.7 7.0 0.00 0.84 0.84 74 1013.3
20260905194527 83 344 1.7 5.2 0.00 0.84 0.84 74 1013.4
20260905194013 83 351 0.0 5.2 0.00 0.84 0.84 74 1013.4
20260905193513 84 345 3.5 5.2 0.00 0.84 0.84 72 1013.4
20260905193029 84 306 0.0 4.3 0.00 0.84 0.84 71 1013.5
20260905192514 84 352 0.9 4.3 0.00 0.84 0.84 72 1013.6
20260905192004 85 65 0.9 3.5 0.00 0.84 0.84 74 1013.6
20260905191508 85 348 0.9 3.5 0.00 0.84 0.84 74 1013.6
20260905191006 84 297 1.7 4.3 0.00 0.84 0.84 71 1013.6
20260905190508 84 301 0.9 4.3 0.00 0.84 0.84 71 1013.7
20260905190013 84 326 1.7 5.2 0.00 0.84 0.84 72 1013.8
20260905185509 84 257 2.6 5.2 0.00 0.84 0.84 72 1013.9
20260905185010 84 10 0.9 5.2 0.00 0.84 0.84 73 1013.9
20260905184523 84 324 1.7 4.3 0.00 0.84 0.84 71 1014.0
20260905184012 84 238 1.7 4.3 0.00 0.84 0.84 73 1014.0
20260905183513 84 273 0.9 5.2 0.00 0.84 0.84 74 1014.0
20260905183032 83 284 1.7 7.0 0.00 0.84 0.84 73 1014.0
20260905182515 83 234 2.6 7.0 0.00 0.84 0.84 72 1014.1
20260905182014 83 277 1.7 6.1 0.00 0.84 0.84 75 1014.1
20260905181543 83 334 2.6 6.1 0.00 0.84 0.84 73 1014.2
20260905181004 83 290 2.6 6.1 0.00 0.84 0.84 74 1014.2
20260905180504 82 329 0.9 5.2 0.00 0.84 0.84 76 1014.1
20260905180014 82 197 1.7 5.2 0.00 0.84 0.84 75 1014.2
20260905175508 81 275 1.7 5.2 0.00 0.84 0.84 77 1014.1
20260905175008 81 246 1.7 5.2 0.00 0.84 0.84 75 1014.2
20260905174524 81 254 0.9 4.3 0.00 0.84 0.84 73 1014.3
20260905174015 82 344 0.9 4.3 0.00 0.84 0.84 73 1014.4
20260905173512 82 315 2.6 4.3 0.00 0.84 0.84 74 1014.4
20260905173031 81 314 2.6 7.0 0.00 0.84 0.84 75 1014.4
20260905172513 81 319 1.7 7.0 0.00 0.84 0.84 75 1014.4
20260905172016 80 313 3.5 6.1 0.00 0.84 0.84 77 1014.5
20260905171538 80 306 2.6 6.1 0.00 0.84 0.84 78 1014.4
20260905171015 79 351 2.6 7.0 0.00 0.84 0.84 76 1014.3
20260905170517 79 342 4.3 7.0 0.00 0.84 0.84 76 1014.5
20260905170012 79 344 3.5 7.0 0.00 0.84 0.84 76 1014.4
20260905165503 79 332 1.7 5.2 0.00 0.84 0.84 78 1014.4
20260905165012 78 344 3.5 7.8 0.00 0.84 0.84 77 1014.6
20260905164516 78 334 4.3 7.8 0.00 0.84 0.84 77 1014.7
20260905164009 78 344 4.3 6.1 0.00 0.84 0.84 78 1014.6
20260905163510 77 348 2.6 5.2 0.00 0.84 0.84 82 1014.6
20260905163024 76 336 1.7 5.2 0.00 0.84 0.84 82 1014.5
20260905162516 75 202 0.9 6.1 0.00 0.84 0.84 86 1014.5
20260905162014 75 252 2.6 6.1 0.00 0.84 0.84 86 1014.5
20260905161529 74 336 3.5 5.2 0.00 0.84 0.84 91 1014.6
20260905161015 72 236 2.6 3.5 0.00 0.84 0.84 91 1014.6
20260905160517 71 210 0.0 3.5 0.00 0.84 0.84 90 1014.6
20260905160053 71 250 0.0 1.7 0.00 0.84 0.84 92 1014.5
20260905155514 70 70 0.0 1.7 0.00 0.84 0.84 92 1014.4
20260905155006 70 70 0.0 2.6 0.01 0.84 0.84 92 1014.3
20260905154512 70 170 0.9 4.3 0.01 0.84 0.84 92 1014.8
20260905154008 70 242 0.9 4.3 0.01 0.84 0.84 92 1014.8
20260905153508 70 155 1.7 3.5 0.01 0.84 0.84 92 1015.2
20260905153022 70 236 1.7 3.5 0.01 0.84 0.84 92 1015.2
20260905152511 70 348 0.9 3.5 0.02 0.84 0.84 92 1015.1
20260905152013 70 269 0.0 3.5 0.02 0.84 0.84 91 1015.1
20260905151533 70 211 0.9 3.5 0.02 0.84 0.84 91 1014.8
20260905151013 70 325 1.7 5.2 0.02 0.84 0.84 91 1015.0
20260905150514 70 344 2.6 5.2 0.03 0.84 0.84 91 1015.0
20260905150034 70 346 2.6 5.2 0.03 0.84 0.84 91 1015.1
20260905145517 70 338 3.5 5.2 0.03 0.84 0.84 91 1015.2
20260905145021 70 317 1.7 2.6 0.02 0.83 0.83 91 1014.9
20260905144532 70 342 0.0 1.7 0.02 0.83 0.83 91 1014.5
20260905144007 70 214 0.0 1.7 0.02 0.83 0.83 90 1014.4
20260905143508 70 214 0.0 4.3 0.02 0.83 0.83 90 1014.3
20260905143017 71 215 0.9 11.3 0.02 0.83 0.83 89 1014.2
20260905142508 71 345 4.3 11.3 0.01 0.82 0.82 89 1014.5
20260905142011 71 342 2.6 7.0 0.01 0.82 0.82 89 1014.4
20260905141523 71 334 0.9 1.7 0.01 0.82 0.82 88 1014.3
20260905141013 71 202 0.0 1.7 0.01 0.82 0.82 88 1014.1
20260905140514 71 206 0.9 2.6 0.00 0.81 0.81 88 1014.0
20260905140031 71 227 0.9 3.5 0.00 0.81 0.81 89 1014.3
20260905135513 71 190 0.0 4.3 0.00 0.81 0.81 88 1014.2
20260905135018 71 205 1.7 5.2 0.00 0.81 0.81 88 1014.1
20260905134535 71 214 1.7 6.1 0.00 0.81 0.81 87 1014.1
20260905134019 71 192 0.9 6.1 0.00 0.81 0.81 88 1013.8
20260905133517 72 173 0.9 6.1 0.00 0.81 0.81 88 1013.9
20260905133015 71 208 2.6 6.1 0.00 0.81 0.81 89 1014.0
20260905132510 71 140 2.6 6.1 0.00 0.81 0.81 89 1014.0
20260905132010 70 153 0.9 6.1 0.00 0.81 0.81 90 1014.0
20260905131523 70 144 0.9 4.3 0.01 0.81 0.81 90 1014.1
20260905131016 69 180 1.7 4.3 0.03 0.81 0.81 92 1014.0
20260905130512 68 190 0.9 4.3 0.03 0.81 0.81 92 1013.9
20260905130028 68 162 1.7 3.5 0.03 0.81 0.81 92 1014.1
20260905125515 68 154 0.9 5.2 0.03 0.81 0.81 92 1014.3
20260905125014 68 146 3.5 5.2 0.03 0.81 0.81 92 1014.6
20260905124538 67 129 1.7 2.6 0.03 0.81 0.81 92 1014.7
20260905124015 67 129 0.0 6.1 0.03 0.81 0.81 92 1014.8
20260905123516 67 100 0.9 6.1 0.03 0.81 0.81 91 1014.9
20260905123033 67 144 3.5 6.1 0.03 0.81 0.81 91 1014.9
20260905122517 67 112 2.6 5.2 0.03 0.81 0.81 91 1014.9
20260905122009 67 180 1.7 4.3 0.03 0.81 0.81 91 1014.9
20260905121521 67 172 1.7 4.3 0.02 0.80 0.80 91 1015.3
20260905121011 67 332 1.7 3.5 0.00 0.78 0.78 91 1015.5
20260905120511 67 57 1.7 5.2 0.01 0.78 0.78 92 1014.8
20260905120027 67 105 2.6 5.2 0.01 0.78 0.78 91 1014.8
20260905115514 67 63 2.6 4.3 0.01 0.78 0.78 92 1015.3
20260905115015 67 79 0.9 6.1 0.01 0.78 0.78 92 1015.1
20260905114529 67 102 0.9 6.1 0.01 0.78 0.78 93 1014.8
20260905114005 67 144 2.6 4.3 0.01 0.78 0.78 93 1014.8
20260905113503 67 88 1.7 3.5 0.04 0.78 0.78 93 1015.1
20260905113010 67 71 1.7 1.7 0.19 0.78 0.78 93 1015.1
20260905112506 67 67 1.7 1.7 0.29 0.78 0.78 93 1015.2
20260905112007 67 96 1.7 1.7 0.30 0.78 0.78 93 1015.3
20260905111516 67 79 0.0 3.5 0.33 0.78 0.78 93 1015.2
20260905111011 67 79 0.9 3.5 0.39 0.78 0.78 93 1015.0
20260905110510 67 146 2.6 3.5 0.46 0.77 0.77 93 1014.8
20260905110023 67 128 1.7 3.5 0.50 0.77 0.77 93 1014.6
20260905105502 67 123 0.9 4.3 0.52 0.77 0.77 93 1014.5
20260905105002 67 105 1.7 7.0 0.55 0.77 0.77 93 1014.7
20260905104511 67 61 3.5 8.7 0.57 0.77 0.77 93 1014.8
20260905104002 67 55 1.7 9.6 0.60 0.77 0.77 93 1015.2
20260905103505 66 80 5.2 10.4 0.61 0.74 0.74 92 1015.4
20260905103017 66 56 7.0 10.4 0.46 0.58 0.58 92 1015.1
20260905102505 66 79 5.2 10.4 0.37 0.49 0.49 92 1015.5
20260905102005 66 64 5.2 10.4 0.37 0.48 0.48 92 1015.4
20260905101516 66 74 6.1 8.7 0.36 0.45 0.45 92 1015.3
20260905101008 66 64 5.2 8.7 0.31 0.39 0.39 91 1015.8
20260905100510 67 59 3.5 8.7 0.27 0.31 0.31 91 1016.0
20260905100019 67 53 1.7 9.6 0.27 0.27 0.27 91 1016.3
20260905095510 67 65 4.3 9.6 0.24 0.24 0.24 91 1015.8
20260905095011 67 78 1.7 6.1 0.22 0.22 0.22 92 1016.0
20260905094534 67 60 1.7 2.6 0.20 0.20 0.20 91 1016.1
20260905094002 67 56 1.7 3.5 0.17 0.17 0.17 91 1016.2
20260905093502 67 37 1.7 9.6 0.13 0.13 0.13 91 1016.1
20260905093008 67 62 4.3 9.6 0.13 0.13 0.13 91 1015.6
20260905092503 67 68 4.3 9.6 0.12 0.12 0.12 91 1015.6
20260905092003 67 56 5.2 9.6 0.11 0.11 0.11 91 1015.9
20260905091529 67 95 5.2 8.7 0.09 0.09 0.09 91 1015.9